Time,TemperatureF,DewpointF,PressureIn,WindDirection,WindDirectionDegrees,WindSpeedMPH,WindSpeedGustMPH,Humidity,HourlyPrecipIn,Conditions,Clouds,dailyrainin,SoftwareType,DateUTC
2013-05-10 00:01:00,61.0,51.0,30.00,North,-999,0.0,0.0,69,0.00,,,-99.99,,2013-05-10 07:01:00,
2013-05-10 00:11:00,60.0,50.0,30.00,ENE,60,2.0,3.0,69,0.00,,,-99.99,,2013-05-10 07:11:00,
2013-05-10 00:22:00,60.0,50.0,30.00,ENE,60,2.0,3.0,69,0.00,,,-99.99,,2013-05-10 07:22:00,
2013-05-10 00:31:00,60.0,50.0,30.00,ENE,60,2.0,3.0,69,0.00,,,-99.99,,2013-05-10 07:31:00,
2013-05-10 00:42:00,60.0,50.0,30.00,North,0,0.0,3.0,70,0.00,,,-99.99,,2013-05-10 07:42:00,
2013-05-10 00:52:00,60.0,50.0,30.00,North,0,0.0,3.0,70,0.00,,,-99.99,,2013-05-10 07:52:00,
2013-05-10 01:02:00,59.0,49.0,30.01,North,0,0.0,1.0,69,0.00,,,-99.99,,2013-05-10 08:02:00,
2013-05-10 01:12:00,59.0,49.0,30.01,North,0,0.0,1.0,69,0.00,,,-99.99,,2013-05-10 08:12:00,
2013-05-10 01:21:00,59.0,49.0,30.01,North,0,0.0,1.0,69,0.00,,,-99.99,,2013-05-10 08:21:00,
2013-05-10 01:32:00,59.0,50.0,30.00,North,-999,0.0,0.0,71,0.00,,,-99.99,,2013-05-10 08:32:00,
2013-05-10 01:42:00,59.0,49.0,30.00,North,0,0.0,4.0,70,0.00,,,-99.99,,2013-05-10 08:42:00,
2013-05-10 01:52:00,59.0,49.0,30.00,North,0,0.0,4.0,70,0.00,,,-99.99,,2013-05-10 08:52:00,
2013-05-10 02:01:00,60.0,49.0,30.00,North,-999,0.0,0.0,68,0.00,,,-99.99,,2013-05-10 09:01:00,
2013-05-10 02:11:00,60.0,49.0,30.00,North,0,0.0,4.0,68,0.00,,,-99.99,,2013-05-10 09:11:00,
2013-05-10 02:21:00,60.0,49.0,30.00,North,0,0.0,4.0,68,0.00,,,-99.99,,2013-05-10 09:21:00,
2013-05-10 02:32:00,60.0,50.0,29.98,North,0,0.0,1.0,69,0.00,,,-99.99,,2013-05-10 09:32:00,
2013-05-10 02:42:00,60.0,49.0,29.97,SW,230,1.0,4.0,68,0.00,,,-99.99,,2013-05-10 09:42:00,
2013-05-10 02:52:00,60.0,49.0,29.97,SW,230,1.0,4.0,68,0.00,,,-99.99,,2013-05-10 09:52:00,
2013-05-10 03:02:00,60.0,49.0,29.97,WSW,240,5.0,5.0,66,0.00,,,-99.99,,2013-05-10 10:02:00,
2013-05-10 03:32:00,62.0,47.0,29.98,North,0,0.0,2.0,59,0.00,,,-99.99,,2013-05-10 10:32:00,
2013-05-10 03:42:00,61.0,48.0,29.98,West,270,2.0,5.0,63,0.00,,,-99.99,,2013-05-10 10:42:00,
2013-05-10 03:52:00,61.0,48.0,29.98,West,270,2.0,5.0,63,0.00,,,-99.99,,2013-05-10 10:52:00,
2013-05-10 04:02:00,62.0,48.0,29.98,West,280,4.0,6.0,60,0.00,,,-99.99,,2013-05-10 11:02:00,
2013-05-10 04:12:00,62.0,48.0,29.97,WNW,290,2.0,8.0,60,0.00,,,-99.99,,2013-05-10 11:12:00,
2013-05-10 04:32:00,61.0,47.0,29.97,WNW,290,5.0,6.0,60,0.00,,,-99.99,,2013-05-10 11:32:00,
2013-05-10 04:42:00,63.0,47.0,29.96,WNW,300,6.0,10.0,55,0.00,,,-99.99,,2013-05-10 11:42:00,
2013-05-10 05:01:00,63.0,46.0,29.96,WNW,300,1.0,2.0,53,0.00,,,-99.99,,2013-05-10 12:01:00,
2013-05-10 05:11:00,63.0,46.0,29.95,WNW,300,3.0,8.0,53,0.00,,,-99.99,,2013-05-10 12:11:00,
2013-05-10 05:21:00,63.0,46.0,29.95,WNW,300,3.0,8.0,53,0.00,,,-99.99,,2013-05-10 12:21:00,
2013-05-10 05:32:00,64.0,46.0,29.95,NW,310,8.0,8.0,52,0.00,,,-99.99,,2013-05-10 12:32:00,
2013-05-10 05:41:00,64.0,46.0,29.95,NW,310,8.0,8.0,52,0.00,,,-99.99,,2013-05-10 12:41:00,
2013-05-10 05:52:00,64.0,46.0,29.95,NW,310,8.0,8.0,52,0.00,,,-99.99,,2013-05-10 12:52:00,
2013-05-10 06:01:00,64.0,45.0,29.94,NW,320,5.0,6.0,51,0.00,,,-99.99,,2013-05-10 13:01:00,
2013-05-10 06:11:00,64.0,45.0,29.94,North,0,0.0,6.0,51,0.00,,,-99.99,,2013-05-10 13:11:00,
2013-05-10 06:21:00,64.0,45.0,29.94,North,0,0.0,6.0,51,0.00,,,-99.99,,2013-05-10 13:21:00,
2013-05-10 06:31:00,64.0,45.0,29.94,North,0,0.0,6.0,51,0.00,,,-99.99,,2013-05-10 13:31:00,
2013-05-10 06:41:00,65.0,45.0,29.94,NW,320,3.0,9.0,49,0.00,,,-99.99,,2013-05-10 13:41:00,
2013-05-10 07:02:00,65.0,46.0,29.94,NNW,330,2.0,4.0,50,0.00,,,-99.99,,2013-05-10 14:02:00,
2013-05-10 07:11:00,65.0,45.0,29.95,NNW,330,1.0,5.0,49,0.00,,,-99.99,,2013-05-10 14:11:00,
2013-05-10 07:41:00,66.0,46.0,29.95,North,0,0.0,1.0,49,0.00,,,-99.99,,2013-05-10 14:41:00,
2013-05-10 07:52:00,66.0,46.0,29.95,North,0,0.0,1.0,49,0.00,,,-99.99,,2013-05-10 14:52:00,
2013-05-10 08:01:00,66.0,47.0,29.95,North,-999,0.0,0.0,51,0.00,,,-99.99,,2013-05-10 15:01:00,
2013-05-10 08:20:00,-999.0,-99.9,29.95,North,-999,0.0,0.0,51,0.00,,,-99.99,,2013-05-10 15:20:00,
2013-05-10 08:53:00,65.0,49.0,29.96,North,0,0.0,3.0,56,0.00,,,-99.99,,2013-05-10 15:53:00,
2013-05-10 09:02:00,65.0,51.0,29.96,North,0,0.0,1.0,60,0.00,,,-99.99,,2013-05-10 16:02:00,
2013-05-10 09:12:00,65.0,51.0,29.96,North,0,0.0,1.0,60,0.00,,,-99.99,,2013-05-10 16:12:00,
2013-05-10 09:23:00,65.0,51.0,29.96,North,0,0.0,1.0,60,0.00,,,-99.99,,2013-05-10 16:23:00,
2013-05-10 09:32:00,65.0,52.0,29.97,North,-999,0.0,0.0,62,0.00,,,-99.99,,2013-05-10 16:32:00,
2013-05-10 09:43:00,65.0,53.0,29.97,North,0,0.0,4.0,64,0.00,,,-99.99,,2013-05-10 16:43:00,
2013-05-10 09:52:00,65.0,53.0,29.97,North,0,0.0,4.0,64,0.00,,,-99.99,,2013-05-10 16:52:00,
2013-05-10 10:02:00,66.0,53.0,29.97,North,0,0.0,1.0,64,0.00,,,-99.99,,2013-05-10 17:02:00,
2013-05-10 10:12:00,66.0,53.0,29.97,North,0,0.0,2.0,64,0.00,,,-99.99,,2013-05-10 17:12:00,
2013-05-10 10:21:00,66.0,53.0,29.97,North,0,0.0,2.0,64,0.00,,,-99.99,,2013-05-10 17:21:00,
2013-05-10 10:32:00,66.0,53.0,29.97,WSW,250,1.0,2.0,62,0.00,,,-99.99,,2013-05-10 17:32:00,
2013-05-10 10:42:00,66.0,53.0,29.96,North,0,0.0,2.0,63,0.00,,,-99.99,,2013-05-10 17:42:00,
2013-05-10 10:52:00,66.0,53.0,29.96,North,0,0.0,2.0,63,0.00,,,-99.99,,2013-05-10 17:52:00,
2013-05-10 11:10:00,-999.0,-99.9,29.96,North,0,0.0,1.0,63,0.00,,,-99.99,,2013-05-10 18:10:00,
2013-05-10 11:21:00,68.0,54.0,29.96,North,0,0.0,4.0,60,0.00,,,-99.99,,2013-05-10 18:21:00,
2013-05-10 11:34:00,69.0,52.0,29.97,West,270,1.0,3.0,55,0.00,,,-99.99,,2013-05-10 18:34:00,
2013-05-10 11:43:00,70.0,55.0,29.96,North,0,0.0,4.0,58,0.00,,,-99.99,,2013-05-10 18:43:00,
2013-05-10 11:54:00,70.0,55.0,29.96,North,0,0.0,4.0,58,0.00,,,-99.99,,2013-05-10 18:54:00,
2013-05-10 12:02:00,72.0,54.0,29.96,North,-999,0.0,0.0,53,0.00,,,-99.99,,2013-05-10 19:02:00,
2013-05-10 12:11:00,73.0,53.0,29.96,North,0,0.0,5.0,50,0.00,,,-99.99,,2013-05-10 19:11:00,
2013-05-10 12:21:00,73.0,53.0,29.96,North,0,0.0,5.0,50,0.00,,,-99.99,,2013-05-10 19:21:00,
2013-05-10 12:32:00,73.0,55.0,29.96,West,270,5.0,5.0,53,0.00,,,-99.99,,2013-05-10 19:32:00,
2013-05-10 12:42:00,73.0,55.0,29.96,West,270,5.0,5.0,53,0.00,,,-99.99,,2013-05-10 19:42:00,
2013-05-10 12:52:00,73.0,55.0,29.96,West,270,5.0,5.0,53,0.00,,,-99.99,,2013-05-10 19:52:00,
2013-05-10 13:01:00,73.0,54.0,29.94,North,0,0.0,1.0,52,0.00,,,-99.99,,2013-05-10 20:01:00,
2013-05-10 13:12:00,73.0,54.0,29.94,North,0,0.0,1.0,52,0.00,,,-99.99,,2013-05-10 20:12:00,
2013-05-10 13:21:00,73.0,54.0,29.94,North,0,0.0,1.0,52,0.00,,,-99.99,,2013-05-10 20:21:00,
2013-05-10 13:31:00,75.0,47.0,29.93,North,0,0.0,4.0,37,0.00,,,-99.99,,2013-05-10 20:31:00,
2013-05-10 13:42:00,75.0,47.0,29.93,North,0,0.0,4.0,37,0.00,,,-99.99,,2013-05-10 20:42:00,
2013-05-10 13:52:00,75.0,47.0,29.93,North,0,0.0,4.0,37,0.00,,,-99.99,,2013-05-10 20:52:00,
2013-05-10 14:01:00,76.0,50.0,29.93,SW,230,3.0,3.0,40,0.00,,,-99.99,,2013-05-10 21:01:00,
2013-05-10 14:11:00,77.0,51.0,29.93,SW,220,2.0,6.0,40,0.00,,,-99.99,,2013-05-10 21:11:00,
2013-05-10 14:24:00,77.0,51.0,29.93,SW,220,2.0,6.0,40,0.00,,,-99.99,,2013-05-10 21:24:00,
2013-05-10 14:32:00,77.0,51.0,29.93,SW,220,2.0,6.0,40,0.00,,,-99.99,,2013-05-10 21:32:00,
2013-05-10 14:42:00,78.0,52.0,29.92,North,0,0.0,9.0,41,0.00,,,-99.99,,2013-05-10 21:42:00,
2013-05-10 14:52:00,78.0,52.0,29.92,North,0,0.0,9.0,41,0.00,,,-99.99,,2013-05-10 21:52:00,
2013-05-10 15:02:00,77.0,52.0,29.91,SW,230,1.0,7.0,42,0.00,,,-99.99,,2013-05-10 22:02:00,
2013-05-10 15:12:00,77.0,52.0,29.91,SW,230,1.0,7.0,42,0.00,,,-99.99,,2013-05-10 22:12:00,
2013-05-10 15:22:00,77.0,52.0,29.91,SW,230,1.0,7.0,42,0.00,,,-99.99,,2013-05-10 22:22:00,
2013-05-10 15:32:00,76.0,50.0,29.89,SW,230,6.0,6.0,40,0.00,,,-99.99,,2013-05-10 22:32:00,
2013-05-10 15:42:00,77.0,49.0,29.89,WSW,240,7.0,13.0,37,0.00,,,-99.99,,2013-05-10 22:42:00,
2013-05-10 15:52:00,77.0,49.0,29.89,WSW,240,7.0,13.0,37,0.00,,,-99.99,,2013-05-10 22:52:00,
2013-05-10 16:02:00,78.0,50.0,29.88,WSW,240,2.0,4.0,38,0.00,,,-99.99,,2013-05-10 23:02:00,
2013-05-10 16:12:00,78.0,50.0,29.88,WSW,240,2.0,4.0,38,0.00,,,-99.99,,2013-05-10 23:12:00,
2013-05-10 16:22:00,78.0,50.0,29.88,WSW,240,2.0,4.0,38,0.00,,,-99.99,,2013-05-10 23:22:00,
2013-05-10 16:32:00,77.0,51.0,29.87,WSW,240,6.0,8.0,40,0.00,,,-99.99,,2013-05-10 23:32:00,
2013-05-10 16:42:00,77.0,52.0,29.86,North,0,0.0,10.0,42,0.00,,,-99.99,,2013-05-10 23:42:00,
2013-05-10 16:52:00,77.0,52.0,29.86,North,0,0.0,10.0,42,0.00,,,-99.99,,2013-05-10 23:52:00,
2013-05-10 17:01:00,77.0,53.0,29.86,WSW,250,6.0,10.0,44,0.00,,,-99.99,,2013-05-11 00:01:00,
2013-05-10 17:11:00,77.0,53.0,29.85,WSW,250,4.0,10.0,44,0.00,,,-99.99,,2013-05-11 00:11:00,
2013-05-10 17:21:00,77.0,53.0,29.85,WSW,250,4.0,10.0,44,0.00,,,-99.99,,2013-05-11 00:21:00,
2013-05-10 17:32:00,77.0,53.0,29.85,WSW,250,4.0,10.0,44,0.00,,,-99.99,,2013-05-11 00:32:00,
2013-05-10 17:42:00,78.0,54.0,29.83,North,0,0.0,8.0,44,0.00,,,-99.99,,2013-05-11 00:42:00,
2013-05-10 17:52:00,78.0,54.0,29.83,North,0,0.0,8.0,44,0.00,,,-99.99,,2013-05-11 00:52:00,
2013-05-10 18:01:00,78.0,55.0,29.82,WSW,240,4.0,5.0,45,0.00,,,-99.99,,2013-05-11 01:01:00,
2013-05-10 18:11:00,78.0,55.0,29.82,WSW,240,4.0,5.0,45,0.00,,,-99.99,,2013-05-11 01:11:00,
2013-05-10 18:21:00,78.0,55.0,29.82,WSW,240,4.0,5.0,45,0.00,,,-99.99,,2013-05-11 01:21:00,
2013-05-10 18:31:00,75.0,54.0,29.82,WSW,240,3.0,5.0,48,0.00,,,-99.99,,2013-05-11 01:31:00,
2013-05-10 18:42:00,75.0,54.0,29.81,WSW,240,3.0,11.0,48,0.00,,,-99.99,,2013-05-11 01:42:00,
2013-05-10 18:52:00,75.0,54.0,29.81,WSW,240,3.0,11.0,48,0.00,,,-99.99,,2013-05-11 01:52:00,
2013-05-10 19:02:00,76.0,55.0,29.80,WSW,240,4.0,4.0,49,0.00,,,-99.99,,2013-05-11 02:02:00,
2013-05-10 19:11:00,76.0,54.0,29.80,North,0,0.0,5.0,47,0.00,,,-99.99,,2013-05-11 02:11:00,
2013-05-10 19:21:00,76.0,54.0,29.80,North,0,0.0,5.0,47,0.00,,,-99.99,,2013-05-11 02:21:00,
2013-05-10 19:32:00,77.0,53.0,29.80,North,-999,0.0,0.0,44,0.00,,,-99.99,,2013-05-11 02:32:00,
2013-05-10 19:42:00,75.0,56.0,29.80,West,260,3.0,3.0,51,0.00,,,-99.99,,2013-05-11 02:42:00,
2013-05-10 19:52:00,75.0,56.0,29.80,West,260,3.0,3.0,51,0.00,,,-99.99,,2013-05-11 02:52:00,
2013-05-10 20:01:00,75.0,52.0,29.80,West,270,1.0,1.0,44,0.00,,,-99.99,,2013-05-11 03:01:00,
2013-05-10 20:11:00,75.0,52.0,29.80,West,270,1.0,1.0,44,0.00,,,-99.99,,2013-05-11 03:11:00,
2013-05-10 20:21:00,75.0,52.0,29.80,West,270,1.0,1.0,44,0.00,,,-99.99,,2013-05-11 03:21:00,
2013-05-10 20:32:00,75.0,53.0,29.81,WNW,290,2.0,2.0,46,0.00,,,-99.99,,2013-05-11 03:32:00,
2013-05-10 20:43:00,74.0,50.0,29.81,WNW,300,7.0,8.0,43,0.00,,,-99.99,,2013-05-11 03:43:00,
2013-05-10 20:53:00,74.0,50.0,29.81,WNW,300,7.0,8.0,43,0.00,,,-99.99,,2013-05-11 03:53:00,
2013-05-10 21:02:00,75.0,47.0,29.82,WNW,300,8.0,8.0,37,0.00,,,-99.99,,2013-05-11 04:02:00,
2013-05-10 21:12:00,76.0,47.0,29.82,WNW,300,9.0,11.0,36,0.00,,,-99.99,,2013-05-11 04:12:00,
2013-05-10 21:23:00,76.0,47.0,29.82,WNW,300,9.0,11.0,36,0.00,,,-99.99,,2013-05-11 04:23:00,
2013-05-10 21:33:00,75.0,45.0,29.83,NW,310,7.0,8.0,34,0.00,,,-99.99,,2013-05-11 04:33:00,
2013-05-10 21:43:00,75.0,44.0,29.84,WNW,300,9.0,11.0,33,0.00,,,-99.99,,2013-05-11 04:43:00,
2013-05-10 21:52:00,75.0,44.0,29.84,WNW,300,9.0,11.0,33,0.00,,,-99.99,,2013-05-11 04:52:00,
2013-05-10 22:02:00,75.0,42.0,29.84,WNW,300,3.0,4.0,31,0.00,,,-99.99,,2013-05-11 05:02:00,
2013-05-10 22:11:00,74.0,41.0,29.85,WNW,300,3.0,10.0,31,0.00,,,-99.99,,2013-05-11 05:11:00,
2013-05-10 22:21:00,74.0,41.0,29.85,WNW,300,3.0,10.0,31,0.00,,,-99.99,,2013-05-11 05:21:00,
2013-05-10 22:32:00,75.0,41.0,29.85,WNW,300,4.0,5.0,29,0.00,,,-99.99,,2013-05-11 05:32:00,
2013-05-10 22:42:00,76.0,40.0,29.85,WNW,300,11.0,13.0,27,0.00,,,-99.99,,2013-05-11 05:42:00,
2013-05-10 22:52:00,76.0,40.0,29.85,WNW,300,11.0,13.0,27,0.00,,,-99.99,,2013-05-11 05:52:00,
2013-05-10 23:02:00,76.0,39.0,29.85,WNW,300,2.0,4.0,26,0.00,,,-99.99,,2013-05-11 06:02:00,
2013-05-10 23:12:00,75.0,39.0,29.85,WNW,290,7.0,11.0,27,0.00,,,-99.99,,2013-05-11 06:12:00,
2013-05-10 23:32:00,75.0,39.0,29.85,WNW,290,3.0,4.0,27,0.00,,,-99.99,,2013-05-11 06:32:00,
2013-05-10 23:42:00,75.0,39.0,29.85,WNW,290,5.0,9.0,27,0.00,,,-99.99,,2013-05-11 06:42:00,
2013-05-10 23:52:00,75.0,39.0,29.85,WNW,290,5.0,9.0,27,0.00,,,-99.99,,2013-05-11 06:52:00,